Tracking 19794 objects as of 23-Jul-2019
HD Live streaming from Space Station
objects crossing your sky now

OPS 1948

Track OPS 1948 now!
OPS 1948 is classified as:


NORAD ID: 11558
Int'l Code: 1979-086A
Perigee: 30,538.7 km
Apogee: 41,078.3 km
Inclination: 6.2 °
Period: 1,436.9 minutes
Semi major axis: 42179 km
RCS: Unknown
Launch date: October 1, 1979
Source: United States (US)
Launch site: AIR FORCE EASTERN TEST RANGE (AFETR)
aabbcc
Your satellite tracking list
Your tracking list is empty




NASA's NSSDC Master Catalog

Two Line Element Set (TLE):
1 11558U 79086A   19202.24600190 -.00000247  00000-0  00000+0 0  9999
2 11558   6.2173 353.0691 1249373  50.8286 319.7387  1.00219060   935
Source of the keplerian elements: McCants